Zurück zum Katalog

SL-16 DEB

AktivLEO
NORAD 22387·DEBRIS·🇷🇺 Russia

Gestartet Dec 25, 1992 von Baikonur Cosmodrome

Loading…

Nächste Überflüge (nächste 24 Stunden)

TLE

AktuellSource: Space-Track

Epoche: Sep 14, 2026, 06:18 UTC

1 22387U 92093CC  26257.26295461  .00000135  00000-0  10287-3 0  9992
2 22387  70.8871 107.0909 0105967  31.2768  89.1848 14.07380397719485

Verfolge SL-16 DEB in Echtzeit mit AllMySat

Download on the App Store